Regional Weather Roundup
Issued by NWS Sioux Falls, SD

Home | Current Version | Previous Version | Graphics & Text | Print | Product List | Glossary On
Versions: 1 2 3 4 5 6 7 8 9 10 11 12 13 14 15 16 17 18 19 20 21 22 23 24 25 26 27 28 29 30 31 32 33 34 35 36 37 38 39 40 41 42 43 44 45 46 47 48 49 50
000
ASUS43 KFSD 061110
RWRFSD

WEATHER ROUNDUP FOR SE SOUTH DAKOTA/SW MINNESOTA/NW IOWA
NATIONAL WEATHER SERVICE SIOUX FALLS SD
500 AM CST FRI MAR 06 2015

NOTE: "FAIR" INDICATES FEW OR NO CLOUDS BELOW 12,000 FEET WITH NO
SIGNIFICANT WEATHER AND OR OBSTRUCTIONS TO VISIBILITY.


SDZ038>040-050-052>070-061200-
SOUTHEAST SOUTH DAKOTA

CITY           SKY/WX    TMP DP  RH WIND       PRES   REMARKS
CHAMBERLAIN    CLOUDY    27  19  73 CALM      30.10S
HURON          CLOUDY    18  10  71 VRB3      30.07R
MADISON        FAIR      19  10  68 SW10      30.05F WCI   8
MITCHELL       CLOUDY    29  18  63 W8        30.10S WCI  21
SIOUX FALLS    PTCLDY    18   9  68 SW5       30.09S WCI  11
WINNER         FAIR      33  16  49 SW7       30.11S WCI  27
YANKTON        CLEAR     27  12  54 W3        30.14R
$$

MNZ071-072-080-081-089-090-097-098-061200-
SOUTHWEST MINNESOTA

CITY           SKY/WX    TMP DP  RH WIND       PRES   REMARKS
FAIRMONT       CLEAR     16   7  67 S15G22    30.09F WCI   1
JACKSON        CLEAR     18   9  68 S12       30.08F WCI   5
LUVERNE        PTCLDY    14   9  79 S3        30.10R
MARSHALL       PTCLDY    21   9  58 W21       30.05S WCI   6
MONTEVIDEO     PTCLDY    16  10  79 W5        30.05R WCI   9
PIPESTONE      FAIR      18  10  73 SW5       30.06S WCI  11
REDWOOD FALLS  MOCLDY    18  10  71 SW6       30.06F WCI  10
TRACY          MOCLDY    22  12  65 SW20      30.04S WCI   6
WINDOM         PTCLDY    18   9  68 SW13      30.07S WCI   4
WORTHINGTON    MOCLDY    19   9  63 SW15      30.09S WCI   5
$$

IAZ001>003-012>014-020>022-031-032-NEZ013-014-SDZ071-061200-
NORTHWEST IOWA

CITY           SKY/WX    TMP DP  RH WIND       PRES   REMARKS
CHEROKEE       CLEAR     18  11  72 S6        30.14S WCI  10
DENISON        CLEAR     21  12  68 S8G17     30.14F WCI  12
ESTHERVILLE    CLEAR     11   6  81 S9        30.11F WCI  -2
LE MARS        PTCLDY    19  12  73 S7        30.14R WCI  10
ORANGE CITY    CLEAR     18  10  73 SW8       30.11S WCI   7
SHELDON        PTCLDY    19  10  68 S10       30.10S WCI   8
SIOUX CITY     CLEAR     17   9  70 E6        30.15S WCI   9
SPENCER        FAIR      18   9  68 SW7       30.12F WCI   9
STORM LAKE     CLEAR     21  12  68 SW16      30.12F WCI   7
$$

ABBREVIATIONS USED IN REMARKS
   TC - TEMPERATURE IN CELSIUS
  WCI - WIND CHILL INDEX
   HX - HEAT INDEX
  VSB - VISIBILITY




USA.gov is the U.S. government's official web portal to all federal, state and local government web resources and services.